This is the latest recevied weather packets stored in our database for station/object AJ5AG. If no packets are shown the sender has not sent any weather packets the latest 10 day(s).
| Time | Temp. | Humidity | Pressure | Rain* | Wind** | Luminosity | Snow |
|---|---|---|---|---|---|---|---|
| 1777073644 | 28.89° C | 71% | 1008.1 hPa | 0 mm | - | 61 W/m² | - |
| 1777073339 | 29.44° C | 69% | 1008.1 hPa | 0 mm | - | 78 W/m² | - |
| 1777073035 | 29.44° C | 67% | 1008.1 hPa | 0 mm | - | 78 W/m² | - |
| 1777072732 | 29.44° C | 66% | 1008 hPa | 0 mm | - | 88 W/m² | - |
| 1777072430 | 28.89° C | 67% | 1007.9 hPa | 0 mm | - | 108 W/m² | - |
| 1777072125 | 29.44° C | 66% | 1008.1 hPa | 0 mm | - | 51 W/m² | - |
| 1777071822 | 29.44° C | 65% | 1008 hPa | 0 mm | - | 64 W/m² | - |
| 1777071518 | 29.44° C | 66% | 1008.1 hPa | 0 mm | - | 82 W/m² | - |
| 1777071213 | 29.44° C | 67% | 1008.1 hPa | 0 mm | - | 62 W/m² | - |
| 1777070909 | 29.44° C | 66% | 1008.1 hPa | 0 mm | - | 108 W/m² | - |
| 1777070607 | 29.44° C | 65% | 1008.3 hPa | 0 mm | - | 123 W/m² | - |
| 1777070307 | 30° C | 64% | 1008.4 hPa | 0 mm | - | 161 W/m² | - |
| 1777070001 | 30° C | 63% | 1008.2 hPa | 0 mm | - | 118 W/m² | - |
| 1777069701 | 30° C | 63% | 1008.3 hPa | 0 mm | - | 185 W/m² | - |
| 1777069396 | 30° C | 61% | 1008.3 hPa | 0 mm | - | 146 W/m² | - |
| 1777069094 | 30° C | 63% | 1008.4 hPa | 0 mm | - | 108 W/m² | - |
| 1777068789 | 30° C | 62% | 1008.1 hPa | 0 mm | - | 126 W/m² | - |
| 1777068485 | 30° C | 63% | 1008.2 hPa | 0 mm | - | 144 W/m² | - |
| 1777068184 | 30° C | 64% | 1008.3 hPa | 0 mm | - | 127 W/m² | - |
| 1777067879 | 30° C | 63% | 1008.2 hPa | 0 mm | - | 120 W/m² | - |
| 1777067578 | 30° C | 64% | 1008.2 hPa | 0 mm | - | 72 W/m² | - |
| 1777067276 | 30° C | 61% | 1008.3 hPa | 0 mm | - | 123 W/m² | - |
| 1777066973 | 30° C | 62% | 1008.3 hPa | 0 mm | - | 109 W/m² | - |
| 1777066667 | 30° C | 62% | 1008.5 hPa | 0 mm | - | 165 W/m² | - |
| 1777066365 | 30° C | 61% | 1008.5 hPa | 0 mm | - | 143 W/m² | - |
* Rain latest hour (hover to see other rain measurements)
** Current wind speed in m/s (hover to see current wind gust speed)